Tracking 28790 objects as of 18-Apr-2024
HD Live streaming from Space Station
objects crossing your sky now

COSMOS 1382 DEB

Track COSMOS 1382 DEB now!


NORAD ID: 27903
Int'l Code: 1982-064E
Perigee: 3,257.9 km
Apogee: 37,916.9 km
Inclination: 67.3 °
Period: 734.2 minutes
Semi major axis: 26958 km
RCS: 0.3202 m2 (medium)
Launch date: June 25, 1982
Source: Commonwealth of Independent States (former USSR) (CIS)
Launch site: PLESETSK MISSILE AND SPACE COMPLEX (PKMTR)

Note: This is SATELLITE DEBRIS
Your satellite tracking list
Your tracking list is empty




NASA's NSSDC Master Catalog

Two Line Element Set (TLE):
1 27903U 82064E   24104.85614503 -.00000365  00000-0  00000-0 0  9999
2 27903  67.2843 323.6114 6428246 358.9466   0.3037  1.96138344155324
Source of the keplerian elements: AFSPC